Hourly Weather Pakhtaabad

Today, 8 August, Saturday

Time Temperature Precipitation Wind Pressure Humidity
00:00 +29°C° 0 mm 2 mps 701 mmHg 30%
01:00 +29°C° 0 mm 2 mps 701 mmHg 30%
02:00 +29°C° 0 mm 2 mps 701 mmHg 31%
03:00 +28°C° 0 mm 2 mps 700 mmHg 32%
04:00 +28°C° 0 mm 2 mps 700 mmHg 32%
05:00 +28°C° 0 mm 2 mps 700 mmHg 33%
06:00 +30°C° 0 mm 2 mps 700 mmHg 30%
07:00 +31°C° 0 mm 2 mps 701 mmHg 28%
08:00 +34°C° 0 mm 2 mps 701 mmHg 25%
09:00 +36°C° 0 mm 2 mps 701 mmHg 23%
10:00 +37°C° 0 mm 3 mps 701 mmHg 21%
11:00 +40°C° 0 mm 4 mps 701 mmHg 20%
12:00 +41°C° 0 mm 4 mps 700 mmHg 18%
13:00 +42°C° 0 mm 4 mps 700 mmHg 17%
14:00 +42°C° 0 mm 4 mps 699 mmHg 16%
15:00 +42°C° 0 mm 5 mps 699 mmHg 16%
16:00 +42°C° 0 mm 6 mps 699 mmHg 16%
17:00 +43°C° 0 mm 7 mps 699 mmHg 16%
18:00 +39°C° 0 mm 6 mps 699 mmHg 19%
19:00 +36°C° 0 mm 5 mps 699 mmHg 22%
20:00 +34°C° 0 mm 5 mps 699 mmHg 25%
21:00 +33°C° 0 mm 3 mps 699 mmHg 27%
22:00 +31°C° 0 mm 2 mps 699 mmHg 29%
23:00 +30°C° 0 mm 1 mps 699 mmHg 31%

Tomorrow, 9 August, Sunday

Time Temperature Precipitation Wind Pressure Humidity
00:00 +29°C° 0 mm 1 mps 699 mmHg 33%
01:00 +28°C° 0 mm 2 mps 699 mmHg 35%
02:00 +27°C° 0 mm 2 mps 698 mmHg 36%
03:00 +27°C° 0 mm 2 mps 698 mmHg 38%
04:00 +26°C° 0 mm 2 mps 698 mmHg 41%
05:00 +25°C° 0 mm 2 mps 698 mmHg 43%
06:00 +27°C° 0 mm 2 mps 699 mmHg 39%
07:00 +29°C° 0 mm 3 mps 699 mmHg 35%
08:00 +30°C° 0 mm 4 mps 700 mmHg 32%
09:00 +33°C° 0 mm 4 mps 700 mmHg 29%
10:00 +35°C° 0 mm 4 mps 700 mmHg 26%
11:00 +36°C° 0 mm 4 mps 700 mmHg 24%
12:00 +37°C° 0 mm 4 mps 699 mmHg 22%
13:00 +38°C° 0 mm 4 mps 699 mmHg 21%
14:00 +40°C° 0 mm 4 mps 699 mmHg 20%
15:00 +38°C° 0 mm 4 mps 699 mmHg 20%
16:00 +38°C° 0 mm 4 mps 699 mmHg 20%
17:00 +38°C° 0 mm 4 mps 699 mmHg 20%
18:00 +35°C° 0.2 mm 3 mps 699 mmHg 27%
19:00 +31°C° 0.2 mm 3 mps 699 mmHg 33%
20:00 +29°C° 0.2 mm 2 mps 699 mmHg 40%
21:00 +28°C° 0.1 mm 2 mps 699 mmHg 43%
22:00 +27°C° 0.1 mm 2 mps 699 mmHg 45%
23:00 +26°C° 0.1 mm 2 mps 700 mmHg 48%

Day after tomorrow, 10 August, Monday

Time Temperature Precipitation Wind Pressure Humidity
00:00 +26°C° 0 mm 2 mps 699 mmHg 49%
01:00 +25°C° 0 mm 2 mps 699 mmHg 50%
02:00 +25°C° 0 mm 2 mps 699 mmHg 51%
03:00 +25°C° 0 mm 2 mps 699 mmHg 51%
04:00 +25°C° 0 mm 2 mps 699 mmHg 51%
05:00 +25°C° 0 mm 2 mps 699 mmHg 50%
06:00 +27°C° 0 mm 2 mps 699 mmHg 44%
07:00 +29°C° 0 mm 1 mps 700 mmHg 37%
08:00 +31°C° 0 mm 1 mps 700 mmHg 30%
09:00 +34°C° 0 mm 2 mps 700 mmHg 26%
10:00 +36°C° 0 mm 3 mps 700 mmHg 23%
11:00 +37°C° 0 mm 3 mps 700 mmHg 19%
12:00 +38°C° 0 mm 4 mps 699 mmHg 18%
13:00 +40°C° 0 mm 4 mps 699 mmHg 17%
14:00 +41°C° 0 mm 4 mps 699 mmHg 16%
15:00 +41°C° 0 mm 4 mps 699 mmHg 15%
16:00 +41°C° 0 mm 4 mps 699 mmHg 15%
17:00 +41°C° 0 mm 4 mps 699 mmHg 15%
18:00 +37°C° 0 mm 4 mps 699 mmHg 18%
19:00 +35°C° 0 mm 3 mps 699 mmHg 21%
20:00 +33°C° 0 mm 3 mps 700 mmHg 24%
21:00 +31°C° 0 mm 3 mps 699 mmHg 25%
22:00 +30°C° 0 mm 2 mps 699 mmHg 27%
23:00 +29°C° 0 mm 2 mps 699 mmHg 29%

11 August, Tuesday

Time Temperature Precipitation Wind Pressure Humidity
00:00 +29°C° 0 mm 2 mps 699 mmHg 30%
01:00 +28°C° 0 mm 2 mps 699 mmHg 31%
02:00 +28°C° 0 mm 2 mps 699 mmHg 31%
03:00 +27°C° 0 mm 2 mps 699 mmHg 31%
04:00 +27°C° 0 mm 2 mps 699 mmHg 31%
05:00 +27°C° 0 mm 1 mps 699 mmHg 31%
06:00 +28°C° 0 mm 2 mps 699 mmHg 27%
07:00 +30°C° 0 mm 2 mps 700 mmHg 23%
08:00 +32°C° 0 mm 2 mps 700 mmHg 18%
09:00 +35°C° 0 mm 3 mps 700 mmHg 17%
10:00 +37°C° 0 mm 3 mps 700 mmHg 15%
11:00 +38°C° 0 mm 4 mps 700 mmHg 14%
12:00 +40°C° 0 mm 4 mps 700 mmHg 13%
13:00 +41°C° 0 mm 4 mps 699 mmHg 12%
14:00 +42°C° 0 mm 4 mps 699 mmHg 12%
15:00 +41°C° 0 mm 5 mps 699 mmHg 12%
16:00 +41°C° 0 mm 5 mps 699 mmHg 12%
17:00 +41°C° 0 mm 5 mps 699 mmHg 12%
18:00 +37°C° 0 mm 5 mps 699 mmHg 16%
19:00 +35°C° 0 mm 5 mps 699 mmHg 19%
20:00 +32°C° 0 mm 4 mps 699 mmHg 22%
21:00 +32°C° 0 mm 4 mps 699 mmHg 23%
22:00 +30°C° 0 mm 3 mps 699 mmHg 24%
23:00 +29°C° 0 mm 3 mps 699 mmHg 25%

12 August, Wednesday

Time Temperature Precipitation Wind Pressure Humidity
00:00 +29°C° 0 mm 2 mps 699 mmHg 26%
01:00 +28°C° 0 mm 2 mps 699 mmHg 27%
02:00 +27°C° 0 mm 1 mps 699 mmHg 29%
03:00 +26°C° 0 mm 1 mps 699 mmHg 30%
04:00 +26°C° 0 mm 1 mps 699 mmHg 31%
05:00 +25°C° 0 mm 1 mps 699 mmHg 32%
06:00 +27°C° 0 mm 1 mps 699 mmHg 28%
07:00 +29°C° 0 mm 2 mps 700 mmHg 24%
08:00 +31°C° 0 mm 2 mps 700 mmHg 21%
09:00 +34°C° 0 mm 2 mps 700 mmHg 19%
10:00 +35°C° 0 mm 3 mps 700 mmHg 17%
11:00 +36°C° 0 mm 3 mps 700 mmHg 16%
12:00 +37°C° 0 mm 4 mps 700 mmHg 15%
13:00 +38°C° 0 mm 4 mps 700 mmHg 14%
14:00 +40°C° 0 mm 4 mps 699 mmHg 13%
15:00 +40°C° 0 mm 4 mps 699 mmHg 13%
16:00 +40°C° 0 mm 5 mps 700 mmHg 12%
17:00 +40°C° 0 mm 5 mps 700 mmHg 12%
18:00 +36°C° 0 mm 5 mps 700 mmHg 14%
19:00 +34°C° 0 mm 4 mps 700 mmHg 16%
20:00 +30°C° 0 mm 4 mps 700 mmHg 18%
21:00 +30°C° 0 mm 3 mps 700 mmHg 18%
22:00 +29°C° 0 mm 3 mps 700 mmHg 19%
23:00 +29°C° 0 mm 2 mps 700 mmHg 19%

13 August, Thursday

Time Temperature Precipitation Wind Pressure Humidity
00:00 +28°C° 0 mm 2 mps 700 mmHg 20%
01:00 +27°C° 0 mm 2 mps 699 mmHg 21%
02:00 +26°C° 0 mm 2 mps 699 mmHg 21%
03:00 +26°C° 0 mm 2 mps 699 mmHg 22%
04:00 +25°C° 0 mm 1 mps 699 mmHg 23%
05:00 +24°C° 0 mm 1 mps 699 mmHg 24%
06:00 +27°C° 0 mm 1 mps 700 mmHg 21%
07:00 +29°C° 0 mm 2 mps 700 mmHg 19%
08:00 +31°C° 0 mm 2 mps 700 mmHg 16%
09:00 +33°C° 0 mm 3 mps 700 mmHg 15%
10:00 +35°C° 0 mm 3 mps 700 mmHg 14%
11:00 +36°C° 0 mm 4 mps 700 mmHg 13%
12:00 +37°C° 0 mm 5 mps 700 mmHg 12%
13:00 +39°C° 0 mm 5 mps 699 mmHg 12%
14:00 +40°C° 0 mm 5 mps 699 mmHg 11%
15:00 +40°C° 0 mm 5 mps 699 mmHg 11%
16:00 +39°C° 0 mm 5 mps 699 mmHg 11%
17:00 +39°C° 0 mm 5 mps 699 mmHg 11%
18:00 +36°C° 0 mm 5 mps 699 mmHg 13%
19:00 +33°C° 0 mm 5 mps 699 mmHg 15%
20:00 +30°C° 0 mm 5 mps 700 mmHg 17%
21:00 +29°C° 0 mm 4 mps 700 mmHg 17%
22:00 +29°C° 0 mm 4 mps 700 mmHg 17%
23:00 +28°C° 0 mm 3 mps 700 mmHg 17%
Show more